Date String (YYYY-MM-DD hh:mm:ss) UTC,Instrument flags,absolute air pressure of the measurement (hPa),sample flow rate (lpm),inlet stack bypass flow (lpm),air temperature of the measurement (°C),ambient temperature measured by the external sensor (°C),aerosol sample conditioner tube jacket temperature (°C),OPC LED temperature (°C),internal box temperature (°C),relative humidity of the measurement (%),span deviation,mass concentration of particles derived from Lorenz-Mie calculation of OPC scattering (μg/m³),mass concentration of particles derived from Lorenz-Mie calculation of OPC scattering (μg/m³),mass concentration of particles derived from Lorenz-Mie calculation of OPC scattering (μg/m³)
DateTimeUTC,F1_M11,P_M11,Q1_M11,Q2_M11,T1_M11,T2_M11,T3_M11,T4_M11,T5_M11,U1_M11,ZSPAN_M11,X0_M11,X2_M11,X1_M11
2023-06-20 06:00:00,SystemResetWarning,0825.6,5.00,000.00,029.6,027.7,000.0,038.1,031.1,13.9,0000.0,0006.99,0003.32,0002.64
2023-06-20 06:01:00,SystemResetWarning,0825.6,5.01,000.00,029.6,027.9,000.0,038.1,031.2,14.3,0000.0,0007.95,0003.33,0002.65
2023-06-20 06:02:00,SystemResetWarning,0825.6,5.00,000.00,029.6,028.0,000.0,038.1,031.2,14.2,0000.0,0007.96,0003.32,0002.65
2023-06-20 06:03:00,SystemResetWarning,0825.6,5.00,000.00,029.7,028.1,000.0,038.1,031.2,12.9,0000.0,0007.99,0003.34,0002.66
2023-06-20 06:04:00,SystemResetWarning,0825.5,5.00,000.00,029.7,028.2,000.0,038.1,031.3,12.1,0000.0,0008.27,0003.40,0002.67
2023-06-20 06:05:00,SystemResetWarning,0825.6,5.00,000.00,029.7,028.3,000.0,038.2,031.3,11.8,0000.0,0008.24,0003.39,0002.64
2023-06-20 06:06:00,SystemResetWarning,0825.5,4.99,000.00,029.8,028.1,000.0,038.2,031.4,11.7,0000.0,0008.03,0003.36,0002.60
2023-06-20 06:07:00,SystemResetWarning,0825.5,5.00,000.00,029.8,025.9,000.0,038.1,031.3,11.5,0000.0,0007.92,0003.33,0002.56
2023-06-20 06:08:00,SystemResetWarning,0825.4,5.02,000.00,029.7,024.9,000.0,038.1,031.2,11.5,0000.0,0007.72,0003.27,0002.53
2023-06-20 06:09:00,SystemResetWarning,0825.4,5.00,000.00,029.6,025.2,000.0,038.0,031.0,11.5,0000.0,0007.62,0003.26,0002.51
2023-06-20 06:10:00,SystemResetWarning,0825.4,4.99,000.00,029.6,025.5,000.0,038.1,030.9,11.5,0000.0,0007.59,0003.24,0002.47
2023-06-20 06:11:00,SystemResetWarning,0825.4,5.00,000.00,029.5,026.0,000.0,038.1,030.8,11.0,0000.0,0007.43,0003.22,0002.43
2023-06-20 06:12:00,SystemResetWarning,0825.4,5.00,000.00,029.5,026.4,000.0,038.0,030.8,12.9,0000.0,0006.46,0003.18,0002.39
2023-06-20 06:13:00,SystemResetWarning,0825.4,5.00,000.00,029.5,026.7,000.0,038.1,030.8,13.8,0000.0,0006.29,0003.15,0002.34
2023-06-20 06:14:00,SystemResetWarning,0825.4,5.00,000.00,029.5,027.0,000.0,038.1,030.9,13.4,0000.0,0006.18,0003.09,0002.32
2023-06-20 06:15:00,SystemResetWarning,0825.4,5.01,000.00,029.5,027.3,000.0,038.1,030.9,12.9,0000.0,0006.56,0003.02,0002.29
2023-06-20 06:16:00,SystemResetWarning,0825.5,5.00,000.00,029.5,027.5,000.0,038.1,031.0,13.3,0000.0,0006.88,0003.04,0002.29
2023-06-20 06:17:00,SystemResetWarning,0825.5,5.00,000.00,029.5,027.7,000.0,038.1,031.0,13.1,0000.0,0008.06,0003.06,0002.29
2023-06-20 06:18:00,SystemResetWarning,0825.5,4.99,000.00,029.6,027.8,000.0,038.1,031.0,12.6,0000.0,0008.13,0003.07,0002.30
2023-06-20 06:19:00,SystemResetWarning,0825.6,5.00,000.00,029.6,027.9,000.0,038.1,031.1,12.2,0000.0,0008.23,0003.11,0002.32
2023-06-20 06:20:00,SystemResetWarning,0825.5,5.00,000.00,029.6,028.0,000.0,038.1,031.2,11.7,0000.0,0008.31,0003.11,0002.32
2023-06-20 06:21:00,SystemResetWarning,0825.6,5.00,000.00,029.6,028.1,000.0,038.1,031.2,11.3,0000.0,0008.47,0003.14,0002.33
2023-06-20 06:22:00,SystemResetWarning,0825.5,5.00,000.00,029.7,028.2,000.0,038.1,031.2,11.1,0000.0,0008.46,0003.13,0002.32
2023-06-20 06:23:00,SystemResetWarning,0825.5,5.00,000.00,029.7,028.2,000.0,038.1,031.2,11.0,0000.0,0008.10,0003.11,0002.30
2023-06-20 06:24:00,SystemResetWarning,0825.6,4.99,000.00,029.7,028.3,000.0,038.2,031.3,10.1,0000.0,0008.10,0003.11,0002.31
2023-06-20 06:25:00,SystemResetWarning,0825.6,4.99,000.00,029.7,028.2,000.0,038.2,031.3,10.2,0000.0,0008.40,0003.11,0002.31
2023-06-20 06:26:00,SystemResetWarning,0825.6,5.00,000.00,029.8,026.3,000.0,038.1,031.3,10.2,0000.0,0007.85,0003.06,0002.29
2023-06-20 06:27:00,SystemResetWarning,0825.6,5.00,000.00,029.7,024.9,000.0,038.1,031.2,10.6,0000.0,0007.45,0003.01,0002.26
2023-06-20 06:28:00,SystemResetWarning,0825.6,5.01,000.00,029.7,025.0,000.0,038.0,031.0,10.6,0000.0,0006.33,0002.93,0002.24
2023-06-20 06:29:00,SystemResetWarning,0825.6,5.01,000.00,029.5,025.4,000.0,038.1,030.8,10.8,0000.0,0006.53,0002.86,0002.22
2023-06-20 06:30:00,SystemResetWarning,0825.7,4.99,000.00,029.5,025.8,000.0,038.1,030.8,10.5,0000.0,0006.42,0002.84,0002.20
2023-06-20 06:31:00,SystemResetWarning,0825.6,5.00,000.00,029.5,026.2,000.0,038.1,030.8,11.7,0000.0,0006.17,0002.78,0002.18
2023-06-20 06:32:00,SystemResetWarning,0825.6,5.00,000.00,029.5,026.6,000.0,038.1,030.8,11.9,0000.0,0005.73,0002.68,0002.16
2023-06-20 06:33:00,SystemResetWarning,0825.7,4.99,000.00,029.5,026.9,000.0,038.1,030.9,11.5,0000.0,0005.72,0002.68,0002.17
2023-06-20 06:34:00,SystemResetWarning,0825.7,5.00,000.00,029.5,027.2,000.0,038.1,030.9,11.7,0000.0,0005.80,0002.74,0002.19
2023-06-20 06:35:00,SystemResetWarning,0825.7,5.00,000.00,029.5,027.4,000.0,038.1,031.0,11.8,0000.0,0005.72,0002.70,0002.18
2023-06-20 06:36:00,SystemResetWarning,0825.7,5.00,000.00,029.5,027.6,000.0,038.1,031.0,11.5,0000.0,0005.27,0002.69,0002.18
2023-06-20 06:37:00,SystemResetWarning,0825.7,5.00,000.00,029.5,027.7,000.0,038.0,031.1,11.8,0000.0,0006.54,0002.68,0002.17
2023-06-20 06:38:00,SystemResetWarning,0825.6,5.01,000.00,029.6,027.8,000.0,038.1,031.1,11.2,0000.0,0007.60,0002.69,0002.18
2023-06-20 06:39:00,SystemResetWarning,0825.6,5.00,000.00,029.6,027.9,000.0,038.1,031.1,11.3,0000.0,0008.22,0002.72,0002.19
2023-06-20 06:40:00,SystemResetWarning,0825.6,5.00,000.00,029.6,028.0,000.0,038.1,031.1,11.5,0000.0,0007.52,0002.72,0002.18
2023-06-20 06:41:00,SystemResetWarning,0825.6,5.00,000.00,029.6,028.1,000.0,038.1,031.2,11.4,0000.0,0007.57,0002.72,0002.18
2023-06-20 06:42:00,SystemResetWarning,0825.6,5.00,000.00,029.7,028.2,000.0,038.1,031.2,11.0,0000.0,0007.61,0002.73,0002.18
2023-06-20 06:43:00,SystemResetWarning,0825.6,5.00,000.00,029.7,028.2,000.0,038.1,031.3,11.6,0000.0,0007.72,0002.76,0002.18
2023-06-20 06:44:00,SystemResetWarning,0825.6,5.00,000.00,029.7,028.3,000.0,038.2,031.3,11.7,0000.0,0007.75,0002.75,0002.17
2023-06-20 06:45:00,SystemResetWarning,0825.6,5.00,000.00,029.7,028.3,000.0,038.2,031.3,10.9,0000.0,0007.66,0002.69,0002.16
2023-06-20 06:46:00,SystemResetWarning,0825.6,5.00,000.00,029.8,028.3,000.0,038.2,031.3,10.5,0000.0,0007.65,0002.68,0002.15
2023-06-20 06:47:00,SystemResetWarning,0825.6,4.99,000.00,029.8,027.1,000.0,038.2,031.3,11.1,0000.0,0007.62,0002.69,0002.15
2023-06-20 06:48:00,SystemResetWarning,0825.6,5.01,000.00,029.8,024.9,000.0,038.1,031.3,11.6,0000.0,0007.02,0002.72,0002.15
2023-06-20 06:49:00,SystemResetWarning,0825.6,5.01,000.00,029.7,024.8,000.0,038.1,031.2,10.9,0000.0,0005.37,0002.69,0002.14
2023-06-20 06:50:00,SystemResetWarning,0825.6,4.99,000.00,029.6,025.1,000.0,038.1,030.9,10.7,0000.0,0004.05,0002.63,0002.13
2023-06-20 06:51:00,SystemResetWarning,0825.5,5.00,000.00,029.5,025.6,000.0,038.1,030.8,11.8,0000.0,0004.03,0002.65,0002.14
2023-06-20 06:52:00,SystemResetWarning,0825.6,5.01,000.00,029.5,026.0,000.0,038.1,030.8,12.0,0000.0,0004.03,0002.67,0002.15
2023-06-20 06:53:00,SystemResetWarning,0825.6,4.99,000.00,029.5,026.4,000.0,038.1,030.8,12.4,0000.0,0003.94,0002.66,0002.15
2023-06-20 06:54:00,SystemResetWarning,0825.6,4.99,000.00,029.5,026.7,000.0,038.1,030.8,12.3,0000.0,0003.83,0002.63,0002.15
2023-06-20 06:55:00,SystemResetWarning,0825.6,5.02,000.00,029.5,027.0,000.0,038.1,030.9,12.4,0000.0,0003.74,0002.63,0002.15
2023-06-20 06:56:00,SystemResetWarning,0825.5,5.00,000.00,029.5,027.2,000.0,038.1,030.9,11.9,0000.0,0003.75,0002.62,0002.14
2023-06-20 06:57:00,SystemResetWarning,0825.6,4.98,000.00,029.5,027.4,000.0,038.0,030.9,12.2,0000.0,0004.39,0002.62,0002.14
2023-06-20 06:58:00,SystemResetWarning,0825.6,5.01,000.00,029.5,027.6,000.0,038.1,031.0,12.7,0000.0,0004.60,0002.62,0002.15
2023-06-20 06:59:00,SystemResetWarning,0825.5,5.00,000.00,029.5,027.7,000.0,038.1,031.0,12.4,0000.0,0004.52,0002.58,0002.15
